TimeAEST,TemperatureF,Dew PointF,Humidity,Sea Level PressureIn,VisibilityMPH,Wind Direction,Wind SpeedMPH,Gust SpeedMPH,PrecipitationIn,Events,Conditions,WindDirDegrees,DateUTC
12:00 AM,75,72,88,29.85,,South,13.8,,,,Overcast,190,2014-02-11 14:00:00
12:00 AM,75.2,71.6,89,29.83,6.2,South,13.8,-,N/A,Rain,Light Rain Showers,190,2014-02-11 14:00:00
12:30 AM,75.2,71.6,89,29.83,6.2,South,8.1,-,N/A,Rain,Light Rain Showers,180,2014-02-11 14:30:00
1:00 AM,76,72,82,29.83,,SSW,8.1,,,,,210,2014-02-11 15:00:00
1:00 AM,75.2,71.6,89,29.80,6.2,SSW,8.1,-,N/A,,Mostly Cloudy,210,2014-02-11 15:00:00
1:30 AM,75.2,73.4,94,29.80,6.2,NNW,4.6,-,N/A,,Mostly Cloudy,330,2014-02-11 15:30:00
2:00 AM,75.2,71.6,89,29.80,6.2,South,10.4,-,N/A,,Mostly Cloudy,180,2014-02-11 16:00:00
2:30 AM,75.2,71.6,89,29.77,6.2,South,10.4,-,N/A,,Mostly Cloudy,170,2014-02-11 16:30:00
3:00 AM,76,71,81,29.78,,South,12.7,,,,,180,2014-02-11 17:00:00
3:00 AM,77.0,71.6,83,29.77,6.2,South,12.7,-,N/A,,Mostly Cloudy,180,2014-02-11 17:00:00
3:30 AM,75.2,71.6,89,29.77,6.2,South,6.9,-,N/A,,Mostly Cloudy,190,2014-02-11 17:30:00
4:00 AM,76,73,87,29.78,,South,8.1,,,,,190,2014-02-11 18:00:00
4:00 AM,75.2,73.4,94,29.77,5.0,South,8.1,-,N/A,Rain,Light Rain Showers,190,2014-02-11 18:00:00
4:30 AM,75.2,73.4,94,29.77,6.2,SE,8.1,-,N/A,,Mostly Cloudy,130,2014-02-11 18:30:00
5:00 AM,77.0,73.4,89,29.77,6.2,South,11.5,-,N/A,Rain,Light Rain Showers,190,2014-02-11 19:00:00
5:30 AM,75.2,73.4,94,29.77,6.2,South,12.7,-,N/A,Rain,Light Rain Showers,190,2014-02-11 19:30:00
6:00 AM,76,73,87,29.80,7,South,10.4,,,Rain,Light Rain Showers,190,2014-02-11 20:00:00
6:00 AM,77.0,73.4,89,29.80,6.2,South,10.4,-,N/A,Rain,Light Rain Showers,190,2014-02-11 20:00:00
6:30 AM,75.2,73.4,94,29.80,6.2,SSE,8.1,-,N/A,,Mostly Cloudy,150,2014-02-11 20:30:00
7:00 AM,77,72,82,29.83,,South,8.1,,,,,170,2014-02-11 21:00:00
7:00 AM,77.0,73.4,89,29.80,6.2,South,8.1,-,N/A,,Scattered Clouds,170,2014-02-11 21:00:00
7:30 AM,78.8,71.6,78,29.83,6.2,South,11.5,-,N/A,,Scattered Clouds,180,2014-02-11 21:30:00
8:00 AM,80.6,73.4,79,29.83,6.2,South,10.4,-,N/A,,Scattered Clouds,180,2014-02-11 22:00:00
8:30 AM,77.0,73.4,89,29.83,6.2,South,11.5,-,N/A,Rain,Light Rain Showers,170,2014-02-11 22:30:00
8:46 AM,78.8,73.4,83,29.83,6.2,South,10.4,-,N/A,,Scattered Clouds,190,2014-02-11 22:46:00
9:00 AM,80,74,78,29.84,16,South,10.4,,,,Mostly Cloudy,180,2014-02-11 23:00:00
9:00 AM,80.6,75.2,84,29.83,6.2,South,10.4,-,N/A,,Mostly Cloudy,180,2014-02-11 23:00:00
9:23 AM,80.6,75.2,84,29.83,6.2,South,8.1,-,N/A,Rain,Light Rain Showers,170,2014-02-11 23:23:00
9:30 AM,78.8,75.2,89,29.83,6.2,South,9.2,-,N/A,Rain,Light Rain Showers,170,2014-02-11 23:30:00
10:00 AM,78,75,89,29.85,,South,8.1,,,,,170,2014-02-12 00:00:00
10:00 AM,77.0,75.2,94,29.83,3.1,South,8.1,-,N/A,Rain,Light Rain Showers,170,2014-02-12 00:00:00
10:30 AM,80.6,75.2,84,29.83,6.2,South,10.4,-,N/A,Rain,Light Rain Showers,190,2014-02-12 00:30:00
10:46 AM,77.0,75.2,94,29.83,3.1,South,13.8,-,N/A,Rain,Light Rain Showers,170,2014-02-12 00:46:00
11:00 AM,78.8,75.2,89,29.83,6.2,South,10.4,-,N/A,,Mostly Cloudy,170,2014-02-12 01:00:00
11:17 AM,80.6,75.2,84,29.83,6.2,South,8.1,-,N/A,,Mostly Cloudy,180,2014-02-12 01:17:00
11:30 AM,80.6,75.2,84,29.83,6.2,South,10.4,-,N/A,,Mostly Cloudy,170,2014-02-12 01:30:00
12:00 PM,81,76,79,29.83,16,SSE,10.4,,,,Partly Cloudy,160,2014-02-12 02:00:00
12:00 PM,80.6,75.2,84,29.83,6.2,SSE,10.4,-,N/A,,Mostly Cloudy,150,2014-02-12 02:00:00
12:30 PM,82.4,75.2,79,29.80,6.2,SE,9.2,-,N/A,,Mostly Cloudy,130,2014-02-12 02:30:00
1:00 PM,84,75,67,29.81,,SSE,11.5,,,,,150,2014-02-12 03:00:00
1:00 PM,84.2,75.2,74,29.80,6.2,SSE,11.5,-,N/A,,Mostly Cloudy,150,2014-02-12 03:00:00
1:30 PM,80.6,75.2,84,29.80,6.2,SE,13.8,-,N/A,Rain,Light Rain Showers,140,2014-02-12 03:30:00
1:40 PM,78.8,75.2,89,29.80,3.7,ESE,12.7,-,N/A,Rain,Light Rain Showers,110,2014-02-12 03:40:00
1:50 PM,78.8,75.2,89,29.80,6.2,South,8.1,-,N/A,,Mostly Cloudy,170,2014-02-12 03:50:00
2:00 PM,80.6,75.2,84,29.80,6.2,South,10.4,-,N/A,,Mostly Cloudy,180,2014-02-12 04:00:00
2:30 PM,78.8,75.2,89,29.80,6.2,South,10.4,-,N/A,Rain,Light Rain Showers,170,2014-02-12 04:30:00
3:00 PM,78,75,89,29.80,9,South,6.9,,,Rain,Light Rain Showers,180,2014-02-12 05:00:00
3:00 PM,78.8,75.2,89,29.80,6.2,South,6.9,-,N/A,Rain,Light Rain Showers,180,2014-02-12 05:00:00
3:30 PM,78.8,75.2,89,29.80,6.2,South,6.9,-,N/A,Rain,Light Rain Showers,180,2014-02-12 05:30:00
4:00 PM,77,75,92,29.80,,SSE,11.5,,,,,150,2014-02-12 06:00:00
4:00 PM,77.0,75.2,94,29.80,5.0,SSE,11.5,-,N/A,Rain,Light Rain Showers,150,2014-02-12 06:00:00
4:30 PM,77.0,75.2,94,29.80,6.2,SSE,9.2,-,N/A,,Mostly Cloudy,150,2014-02-12 06:30:00
5:00 PM,77.0,75.2,94,29.80,6.2,South,5.8,-,N/A,,Mostly Cloudy,170,2014-02-12 07:00:00
5:30 PM,77.0,73.4,89,29.80,6.2,South,6.9,-,N/A,,Mostly Cloudy,170,2014-02-12 07:30:00
6:00 PM,77,74,86,29.81,,SSE,8.1,,,,Overcast,160,2014-02-12 08:00:00
6:00 PM,77.0,73.4,89,29.80,6.2,SSE,8.1,-,N/A,Rain,Light Rain Showers,160,2014-02-12 08:00:00
6:27 PM,77.0,75.2,94,29.80,5.6,SSE,10.4,-,N/A,Rain,Light Rain Showers,160,2014-02-12 08:27:00
6:30 PM,77.0,75.2,94,29.80,5.6,SSE,10.4,-,N/A,Rain,Light Rain Showers,150,2014-02-12 08:30:00
6:45 PM,77.0,73.4,89,29.83,6.2,SSE,8.1,-,N/A,Rain,Light Rain Showers,160,2014-02-12 08:45:00
7:00 PM,76,74,90,29.84,,South,9.2,,,,,180,2014-02-12 09:00:00
7:00 PM,75.2,73.4,94,29.83,4.3,South,9.2,-,N/A,Rain,Light Rain Showers,180,2014-02-12 09:00:00
7:30 PM,77.0,73.4,89,29.83,4.3,South,10.4,-,N/A,Rain,Light Rain Showers,180,2014-02-12 09:30:00
8:00 PM,77.0,73.4,89,29.83,5.0,South,8.1,-,N/A,Rain,Light Rain Showers,190,2014-02-12 10:00:00
8:30 PM,75.2,73.4,94,29.86,4.3,South,13.8,-,N/A,Rain,Light Rain Showers,190,2014-02-12 10:30:00
9:00 PM,75,72,89,29.86,,South,12.7,,,,Overcast,180,2014-02-12 11:00:00
9:00 PM,75.2,73.4,94,29.86,5.0,South,12.7,-,N/A,Rain,Light Rain Showers,180,2014-02-12 11:00:00
9:30 PM,75.2,71.6,89,29.86,6.2,South,8.1,-,N/A,,Mostly Cloudy,190,2014-02-12 11:30:00
10:00 PM,76,72,84,29.87,,South,9.2,,,,,170,2014-02-12 12:00:00
10:00 PM,75.2,71.6,89,29.86,6.2,South,9.2,-,N/A,,Mostly Cloudy,170,2014-02-12 12:00:00
10:30 PM,75.2,71.6,89,29.86,6.2,SSE,8.1,-,N/A,,Mostly Cloudy,160,2014-02-12 12:30:00
11:00 PM,75.2,71.6,89,29.86,6.2,South,9.2,-,N/A,,Scattered Clouds,170,2014-02-12 13:00:00
11:30 PM,77.0,69.8,78,29.86,6.2,South,9.2,-,N/A,,Scattered Clouds,170,2014-02-12 13:30:00